Terug naar catalogus

COSMOS 842

ActiefMilitairPO
NORAD 9025·PAYLOAD·🇷🇺 Russia

Gelanceerd Jul 21, 1976 vanaf Plesetsk Cosmodrome

Loading…

Volgende Passages (komende 24 uur)

TLE

VersSource: Space-Track

Epoch: Sep 14, 2026, 05:45 UTC

1 09025U 76070A   26257.23966833  .00000046  00000-0  32079-4 0  9993
2 09025  82.9922 350.7914 0028006  19.1819   9.7678 13.74251753514324

Volg COSMOS 842 in realtime met AllMySat

Download on the App Store